Notices

What's New in latest Release from April 7th, 2021:

- Updated Glossary, including Speed of Maximum Gust, and Total Hourly Precipitation

- Updated national and regional climate services offices contacts and prices information

- Addition of station inventory lists for 1981-2010, 1971-2000, and 1961-1990 Normals.

If you haven't already, please take our survey and provide feedback about our website: https://eccc.sondage-survey.ca/f/LanguageSelection.aspx?s=442ca660-fcf1-47c0-95a9-59707d6fd709

Hourly Data Report for April 06, 2021

KUGAARUK CLIMATE
NUNAVUT
Current Station Operator: ECCC - MSC

68°32'15.060" N
89°47'47.020" W
15.80 m
2303094
71407
NBB

Download Data

Hourly Data (April 2021)
Hourly Data Report for April 6, 2021
TIME
LST
Temp Definition
°C
Dew Point Definition
°C
Rel Hum Definition
%
Precip. Amount Definition
mm

Wind Dir Definition
10's deg

Wind Spd Definition
km/h
Visibility Definition
km
Stn Press Definition
kPa
Hmdx Definition


Wind Chill Definition


Weather Definition


00:00 -24.0 -26.5 80 0.0 26 7   101.87   -30 LegendNANA
01:00 -23.5 -25.9 81 0.0 19 6   101.94   -29 LegendNANA
02:00 -25.9 -28.5 79 0.0 0 1   102.00   -27 LegendNANA
03:00 -28.1 -31.0 76 0.0 8 2   102.07   -30 LegendNANA
04:00 -28.8 -31.8 76 0.0 6 2   102.16   -31 LegendNANA
05:00 -29.4 -32.6 74 0.0 5 5   102.22   -35 LegendNANA
06:00 -28.8 -32.2 73 0.8 3 4   102.23   -33 LegendNANA
07:00 -28.5 -32.0 72 0.3 6 5   102.25   -34 LegendNANA
08:00 -27.1 -30.8 71 0.6 8 9   102.25   -35 LegendNANA
09:00 -24.6 -28.3 72 0.0 10 7   102.30   -31 LegendNANA
10:00 -23.9 -27.8 70 0.7 6 10   102.27   -32 LegendNANA
11:00 -21.7 -25.9 69 0.5 16 2   102.31   -24 LegendNANA
12:00 -20.2 -25.1 65 1.4 8 3   102.33   -23 LegendNANA
13:00 -16.9 -21.2 69 0.0 13 9   102.36   -23 LegendNANA
14:00 -17.4 -21.5 70 0.0 7 18   102.35   -27 LegendNANA
15:00 -17.6 -21.7 70 0.0 5 9   102.33   -24 LegendNANA
16:00 -17.8 -21.7 71 0.0 5 15   102.31   -26 LegendNANA
17:00 -14.9 -19.3 69 0.0 14 17   102.35   -23 LegendNANA
18:00 -16.0 -19.8 72 0.0 10 11   102.30   -23 LegendNANA
19:00 -15.8 -18.9 77 0.0 7 21   102.26   -25 LegendNANA
20:00 -17.9 -20.4 81 0.0 6 19   102.22   -28 LegendNANA
21:00 -21.6 -24.0 81 0.0 24 3   102.24   -24 LegendNANA
22:00 -19.7 -21.4 86 0.2 5 12   102.20   -28 LegendNANA
23:00 -19.1 -21.1 84 0.0 8 9   102.19   -26 LegendNANA

Notes on Data Quality.

Legend

  • E = Estimated
  • M = Missing
  • NA = Not Available*
  • [empty] = Indicates an unobserved value
Date modified: